Regional Weather Roundup
Issued by NWS

Home | Current Version | Previous Version | Text Only | Print | Product List | Glossary On
Versions: 1 2 3 4 5 6 7 8 9 10 11 12 13 14 15 16 17 18 19 20 21 22 23 24 25 26 27 28 29 30 31 32 33 34 35 36 37 38 39 40 41 42 43 44 45 46 47 48 49 50
000
ASUS44 KBMX 240310
RWRAL

ALABAMA REGIONAL WEATHER ROUNDUP
NATIONAL WEATHER SERVICE BIRMINGHAM AL
900 PM CST TUE JAN 23 2018

NOTE: "FAIR" INDICATES FEW OR NO CLOUDS BELOW 12,000 FEET
WITH NO SIGNIFICANT WEATHER AND/OR OBSTRUCTIONS TO VISIBILITY.

THE REMARK "TC" DENOTES TEMPERATURE IN DEGREES CELSIUS.

ALZ001>011-014-016>018-020-240400-
NORTH ALABAMA

CITY           SKY/WX    TMP DP  RH WIND       PRES   REMARKS
MUSCLE SHOALS  MOCLDY    38  28  67 NW5       30.28R WCI  34
HUNTSVILLE     FAIR      36  29  75 W3        30.24R
DECATUR        FAIR      34  27  75 W5        30.26R WCI  30
HALEYVILLE     FAIR      35  29  78 NW7       30.27R WCI  29
GADSDEN        FAIR      40  30  67 NW9       30.23R WCI  34
$$

ALZ012-013-022-023-030>036-040>044-240400-
WEST CENTRAL ALABAMA

CITY           SKY/WX    TMP DP  RH WIND       PRES   REMARKS
TUSCALOOSA     FAIR      46  34  62 N8        30.25R
DEMOPOLIS        N/A     47  32  56 NW6       30.25R
$$

ALZ015-024>026-033>036-041>044-240400-
CENTRAL ALABAMA

CITY           SKY/WX    TMP DP  RH WIND       PRES   REMARKS
BIRMINGHAM     FAIR      41  29  62 N10       30.25R
MONTGOMERY     FAIR      41  30  65 CALM      30.20R
SHELBY CO ARPT FAIR      44  33  65 NW5       30.20S
MAXWELL AFB    CLEAR     47  33  58 CALM      30.18S
GREENVILLE     FAIR      42  33  70 NW5       30.18R
SELMA          FAIR      37  34  87 CALM      30.21R
PRATTVILLE     FAIR      40  34  79 CALM      30.19R
BESSEMER       FAIR      44  31  60 N9        30.22R
TALLADEGA      FAIR      44  31  62 N6        30.22R
PELL CITY      CLEAR     43  32  65 N3        30.23R
MARION         FAIR      43  33  68 NW10      30.21R
SYLACAUGA      FAIR      46  35  65 NW6       30.20S
$$

ALZ019-021-028-029-037-038-045>048-240400-
EAST CENTRAL ALABAMA

CITY           SKY/WX    TMP DP  RH WIND       PRES   REMARKS
ANNISTON       FAIR      44  30  57 N13G18    30.20R
ALEXANDER CITY FAIR      38  36  91 W3        30.18R
AUBURN         FAIR      45  33  63 NW7       30.18R
$$

ALZ051>064-240400-
SOUTHWEST ALABAMA

CITY           SKY/WX    TMP DP  RH WIND       PRES   REMARKS
MOBILE         FAIR      49  29  46 NW8       30.23R
BROOKLEY FIELD FAIR      46  33  60 NW8       30.23R
EVERGREEN      FAIR      39  35  86 CALM      30.21R
$$

ALZ049-050-065>069-240400-
SOUTHEAST ALABAMA

CITY           SKY/WX    TMP DP  RH WIND       PRES   REMARKS
DOTHAN         FAIR      48  34  58 MISG      30.20R
OZARK          FAIR      48  31  53 NW8       30.17R
TROY           FAIR      45  32  60 CALM      30.19R
EUFAULA        FAIR      49  33  54 NW6       30.17R
$$



USA.gov is the U.S. government's official web portal to all federal, state and local government web resources and services.